When you browse on this site, cookies collect data to enhance your experience and personalize the content and advertising you see.
Visit our Privacy Policy to learn more. By continuing to use the site, you agree to this use of cookies and data.
  • In Sweden
  • List of Countries
  • For 7 days
  • Water Temperature
  • Weather Map
  • Weather Widgets
  • user-avatar
    Login

    Hourly Weather Aheivka

    Today, 29 May, Friday

    Time Temperature Precipitation Wind Pressure Humidity
    00:00 +11°C° 0.1 mm 4 mps 742 mmHg 95%
    01:00 +11°C° 0.1 mm 4 mps 742 mmHg 95%
    02:00 +12°C° 0 mm 2 mps 742 mmHg 99%
    03:00 +12°C° 0.1 mm 2 mps 742 mmHg 98%
    04:00 +11°C° 0.1 mm 3 mps 742 mmHg 97%
    05:00 +11°C° 0.1 mm 3 mps 742 mmHg 97%
    06:00 +11°C° 0.1 mm 3 mps 742 mmHg 95%
    07:00 +12°C° 0.1 mm 3 mps 742 mmHg 94%
    08:00 +12°C° 0.1 mm 3 mps 743 mmHg 92%
    09:00 +13°C° 0.1 mm 3 mps 743 mmHg 88%
    10:00 +14°C° 0.1 mm 3 mps 743 mmHg 84%
    11:00 +16°C° 0.1 mm 3 mps 743 mmHg 81%
    12:00 +15°C° 0.2 mm 4 mps 743 mmHg 80%
    13:00 +17°C° 0.2 mm 4 mps 743 mmHg 80%
    14:00 +16°C° 0.2 mm 5 mps 742 mmHg 79%
    15:00 +15°C° 0.1 mm 4 mps 742 mmHg 80%
    16:00 +15°C° 0.1 mm 4 mps 742 mmHg 82%
    17:00 +15°C° 0.1 mm 4 mps 742 mmHg 83%
    18:00 +14°C° 0 mm 4 mps 742 mmHg 86%
    19:00 +14°C° 0 mm 3 mps 742 mmHg 88%
    20:00 +13°C° 0 mm 3 mps 741 mmHg 91%
    21:00 +13°C° 0 mm 3 mps 741 mmHg 91%
    22:00 +12°C° 0 mm 3 mps 741 mmHg 91%
    23:00 +12°C° 0 mm 4 mps 741 mmHg 92%

    Tomorrow, 30 May, Saturday

    Time Temperature Precipitation Wind Pressure Humidity
    00:00 +12°C° 0.1 mm 4 mps 741 mmHg 92%
    01:00 +12°C° 0.1 mm 4 mps 741 mmHg 93%
    02:00 +12°C° 0.1 mm 4 mps 740 mmHg 94%
    03:00 +12°C° 0.2 mm 4 mps 740 mmHg 93%
    04:00 +11°C° 0.2 mm 4 mps 740 mmHg 93%
    05:00 +11°C° 0.2 mm 4 mps 740 mmHg 93%
    06:00 +12°C° 0.4 mm 4 mps 740 mmHg 92%
    07:00 +12°C° 0.4 mm 4 mps 740 mmHg 90%
    08:00 +12°C° 0.4 mm 5 mps 741 mmHg 89%
    09:00 +13°C° 0.1 mm 5 mps 741 mmHg 86%
    10:00 +14°C° 0.1 mm 6 mps 741 mmHg 84%
    11:00 +14°C° 0.1 mm 6 mps 741 mmHg 81%
    12:00 +14°C° 0.1 mm 7 mps 741 mmHg 82%
    13:00 +14°C° 0.1 mm 7 mps 741 mmHg 82%
    14:00 +12°C° 0.1 mm 8 mps 741 mmHg 82%
    15:00 +12°C° 0 mm 8 mps 741 mmHg 80%
    16:00 +13°C° 0 mm 8 mps 741 mmHg 79%
    17:00 +14°C° 0 mm 7 mps 741 mmHg 77%
    18:00 +12°C° 0 mm 7 mps 741 mmHg 79%
    19:00 +11°C° 0 mm 6 mps 741 mmHg 81%
    20:00 +10°C° 0 mm 5 mps 742 mmHg 83%
    21:00 +10°C° 0 mm 5 mps 742 mmHg 85%
    22:00 +10°C° 0 mm 4 mps 742 mmHg 87%
    23:00 +8°C° 0 mm 4 mps 742 mmHg 89%

    Day after tomorrow, 31 May, Sunday

    Time Temperature Precipitation Wind Pressure Humidity
    00:00 +8°C° 0 mm 4 mps 742 mmHg 89%
    01:00 +8°C° 0 mm 4 mps 742 mmHg 89%
    02:00 +8°C° 0 mm 4 mps 741 mmHg 89%
    03:00 +9°C° 0 mm 3 mps 741 mmHg 90%
    04:00 +9°C° 0 mm 3 mps 741 mmHg 90%
    05:00 +8°C° 0 mm 2 mps 741 mmHg 90%
    06:00 +10°C° 0 mm 3 mps 742 mmHg 84%
    07:00 +12°C° 0 mm 4 mps 742 mmHg 77%
    08:00 +14°C° 0 mm 5 mps 742 mmHg 71%
    09:00 +15°C° 0 mm 5 mps 742 mmHg 67%
    10:00 +16°C° 0 mm 5 mps 742 mmHg 63%
    11:00 +19°C° 0 mm 6 mps 742 mmHg 59%
    12:00 +19°C° 0 mm 6 mps 742 mmHg 58%
    13:00 +19°C° 0 mm 6 mps 743 mmHg 57%
    14:00 +20°C° 0 mm 6 mps 743 mmHg 55%
    15:00 +20°C° 0.1 mm 5 mps 743 mmHg 57%
    16:00 +20°C° 0.1 mm 5 mps 743 mmHg 59%
    17:00 +19°C° 0.1 mm 4 mps 743 mmHg 61%
    18:00 +18°C° 0.1 mm 3 mps 743 mmHg 67%
    19:00 +16°C° 0.1 mm 2 mps 743 mmHg 72%
    20:00 +15°C° 0.1 mm 1 mps 743 mmHg 78%
    21:00 +14°C° 0 mm 1 mps 743 mmHg 80%
    22:00 +13°C° 0 mm 1 mps 743 mmHg 83%
    23:00 +13°C° 0 mm 1 mps 744 mmHg 85%

    1 June, Monday

    Time Temperature Precipitation Wind Pressure Humidity
    00:00 +13°C° 0 mm 1 mps 744 mmHg 86%
    01:00 +12°C° 0 mm 1 mps 744 mmHg 87%
    02:00 +12°C° 0 mm 1 mps 743 mmHg 88%
    03:00 +12°C° 0 mm 2 mps 743 mmHg 88%
    04:00 +12°C° 0 mm 2 mps 743 mmHg 88%
    05:00 +12°C° 0 mm 2 mps 743 mmHg 89%
    06:00 +14°C° 0 mm 2 mps 744 mmHg 83%
    07:00 +16°C° 0 mm 2 mps 744 mmHg 78%
    08:00 +17°C° 0 mm 2 mps 744 mmHg 73%
    09:00 +18°C° 0.2 mm 3 mps 744 mmHg 68%
    10:00 +19°C° 0.2 mm 3 mps 744 mmHg 63%
    11:00 +21°C° 0.2 mm 3 mps 744 mmHg 58%
    12:00 +21°C° 0.3 mm 3 mps 744 mmHg 58%
    13:00 +21°C° 0.3 mm 4 mps 744 mmHg 58%
    14:00 +21°C° 0.3 mm 4 mps 744 mmHg 58%
    15:00 +20°C° 0.2 mm 5 mps 744 mmHg 63%
    16:00 +19°C° 0.2 mm 5 mps 744 mmHg 68%
    17:00 +19°C° 0.2 mm 6 mps 744 mmHg 74%
    18:00 +16°C° 0 mm 6 mps 744 mmHg 78%
    19:00 +14°C° 0 mm 6 mps 744 mmHg 82%
    20:00 +11°C° 0 mm 6 mps 745 mmHg 86%
    21:00 +12°C° 0 mm 5 mps 745 mmHg 86%
    22:00 +10°C° 0 mm 5 mps 745 mmHg 87%
    23:00 +10°C° 0 mm 5 mps 745 mmHg 87%

    2 June, Tuesday

    Time Temperature Precipitation Wind Pressure Humidity
    00:00 +10°C° 0 mm 5 mps 745 mmHg 86%
    01:00 +10°C° 0 mm 5 mps 745 mmHg 86%
    02:00 +10°C° 0 mm 5 mps 745 mmHg 85%
    03:00 +10°C° 0 mm 5 mps 745 mmHg 86%
    04:00 +9°C° 0 mm 5 mps 745 mmHg 87%
    05:00 +9°C° 0 mm 5 mps 745 mmHg 88%
    06:00 +10°C° 0 mm 5 mps 746 mmHg 84%
    07:00 +11°C° 0 mm 6 mps 746 mmHg 80%
    08:00 +11°C° 0 mm 6 mps 746 mmHg 75%
    09:00 +13°C° 0 mm 6 mps 746 mmHg 70%
    10:00 +14°C° 0 mm 6 mps 746 mmHg 64%
    11:00 +15°C° 0 mm 6 mps 747 mmHg 59%
    12:00 +15°C° 0.1 mm 6 mps 746 mmHg 58%
    13:00 +15°C° 0.1 mm 6 mps 746 mmHg 57%
    14:00 +15°C° 0.1 mm 5 mps 746 mmHg 56%
    15:00 +15°C° 0 mm 5 mps 746 mmHg 57%
    16:00 +15°C° 0 mm 5 mps 746 mmHg 58%
    17:00 +15°C° 0 mm 5 mps 746 mmHg 59%
    18:00 +13°C° 0 mm 4 mps 746 mmHg 66%
    19:00 +12°C° 0 mm 3 mps 746 mmHg 72%
    20:00 +10°C° 0 mm 3 mps 746 mmHg 79%
    21:00 +10°C° 0 mm 3 mps 746 mmHg 81%
    22:00 +9°C° 0 mm 3 mps 746 mmHg 84%
    23:00 +8°C° 0 mm 3 mps 746 mmHg 87%

    3 June, Wednesday

    Time Temperature Precipitation Wind Pressure Humidity
    00:00 +8°C° 0 mm 3 mps 746 mmHg 89%
    01:00 +8°C° 0 mm 3 mps 746 mmHg 91%
    02:00 +7°C° 0 mm 2 mps 746 mmHg 92%
    03:00 +7°C° 0 mm 3 mps 746 mmHg 92%
    04:00 +7°C° 0 mm 3 mps 746 mmHg 92%
    05:00 +8°C° 0 mm 3 mps 746 mmHg 92%
    06:00 +9°C° 0 mm 3 mps 746 mmHg 85%
    07:00 +11°C° 0 mm 3 mps 746 mmHg 79%
    08:00 +13°C° 0 mm 3 mps 746 mmHg 73%
    09:00 +14°C° 0.2 mm 3 mps 746 mmHg 68%
    10:00 +16°C° 0.2 mm 3 mps 746 mmHg 63%
    11:00 +17°C° 0.2 mm 3 mps 746 mmHg 58%
    12:00 +17°C° 0.1 mm 3 mps 746 mmHg 56%
    13:00 +18°C° 0.1 mm 2 mps 746 mmHg 53%
    14:00 +18°C° 0.1 mm 2 mps 745 mmHg 51%
    15:00 +18°C° 0.2 mm 2 mps 745 mmHg 52%
    16:00 +18°C° 0.2 mm 2 mps 745 mmHg 53%
    17:00 +18°C° 0.2 mm 2 mps 745 mmHg 54%
    18:00 +16°C° 0 mm 2 mps 745 mmHg 60%
    19:00 +15°C° 0 mm 1 mps 745 mmHg 67%
    20:00 +13°C° 0 mm 1 mps 745 mmHg 74%
    21:00 +12°C° 0 mm 1 mps 745 mmHg 76%
    22:00 +12°C° 0 mm 1 mps 745 mmHg 79%
    23:00 +11°C° 0 mm 1 mps 746 mmHg 82%
    Show more